Location: G?julap?du
(16.5372°N, 81.0979°E)
Time: 23:28:38
(UTC+00:00)

Cosmos 1703 - Pass Details

Date: 14 April 2026
Orbit: 403 x 411 km, 82.5° (Epoch: 9 May)

Event Time Altitude Azimuth Distance (km) Brightness Sun altitude
Rises 23:52:34 0° 178° (S) 2,340 6.4 -7.4°
Reaches altitude 10° 23:54:36 10° 175° (S) 1,481 5.5 -6.9°
Maximum altitude 23:57:47 61° 94° (E) 476 3.4 -6.2°
Drops below altitude 10° 00:00:58 10° 13° (NNE) 1,487 5.9 -5.5°
Sets 00:03:01 0° 10° (N) 2,351 6.8 -5.0°
